Flag Weather past 2 weeks in Rockford, Illinois, U.S.A.

Now
14 °F

Overcast.


Feels Like: 14 °F
Forecast: 10 / 32 °F
Wind: No wind

Location: Greater Rockford Airport

Current Time: Nov 28, 2014 at 2:29:53 AM

Latest Report: Nov 28, 2014 at 1:54 AM


Visibility: 10 mi

Pressure: 30.42 "Hg

Humidity: 67%

Dew point: 5 °F

Location of RockfordLocation

Historic Weather in Rockford — Graph

°F

Rockford temperature yesterday

Maximum temperature yesterday: 25 °F (at 8:54 AM)
Minimum temperature yesterday: 11 °F (at 10:54 PM)
Average temperature yesterday: 20 °F

Past Weeks' High & Low Weather Summary

 TemperatureHumidityPressure
High50 °F (Nov 23, 4:54 AM)97% (Nov 22, 6:54 AM)30.49 "Hg (Nov 22, 6:54 AM)
Low5 °F (Nov 21, 5:54 AM)26% (Nov 21, 2:54 PM)29.10 "Hg (Nov 24, 1:54 AM)
Average24 °F73%30.09 "Hg
* Reported Nov 13 12:54 AM — Nov 28 12:54 AM, Rockford, Weather by CustomWeather, © 2014

Note: Actual official high and low records may vary slightly from our data, if they occured in-between our weather recording intervals... More about our weather records

Advertising

Rockford weather history for previous 24 hours

 ConditionsComfort  
Time TempWeatherWind HumidityBarometerVisibility
12:54 AM
Nov 28
13 °FOvercast.5 mph70%30.42 "Hg10 mi
11:54 PM
Nov 27
13 °FOvercast.No wind70%30.42 "Hg10 mi
10:54 PM11 °FOvercast.3 mph77%30.43 "Hg10 mi
9:54 PM13 °FPartly cloudy.No wind61%30.45 "Hg10 mi
8:54 PM13 °FMostly cloudy.3 mph64%30.46 "Hg10 mi
7:54 PM13 °FPassing clouds.No wind64%30.45 "Hg10 mi
6:54 PM14 °FClear.7 mph67%30.46 "Hg10 mi
5:54 PM17 °FLight snow. Passing clouds.7 mph68%30.47 "Hg10 mi
4:54 PM19 °FPassing clouds.7 mph65%30.46 "Hg10 mi
3:54 PM21 °FLight snow. Partly sunny.7 mph62%30.45 "Hg10 mi
2:54 PM22 °FLight snow. Overcast.12 mph62%30.43 "Hg10 mi
1:54 PM23 °FLight snow. More clouds than sun.10 mph63%30.42 "Hg10 mi
12:54 PM23 °FLight snow. Mostly cloudy.13 mph72%30.41 "Hg10 mi
11:54 AM24 °FLight snow. Partly sunny.14 mph65%30.41 "Hg9 mi
10:54 AM24 °FLight snow. More clouds than sun.9 mph71%30.42 "Hg8 mi
9:54 AM24 °FLight snow. Mostly cloudy.10 mph71%30.42 "Hg9 mi
8:54 AM25 °FLight snow. Overcast.9 mph75%30.40 "Hg8 mi
7:54 AM24 °FLight snow. Overcast.12 mph77%30.38 "Hg8 mi
6:54 AM23 °FLight snow. Overcast.9 mph81%30.36 "Hg8 mi
5:54 AM22 °FIce fog.9 mph85%30.35 "Hg6 mi
4:54 AM21 °FLight snow. Ice fog.9 mph85%30.33 "Hg5 mi
3:54 AM20 °FIce fog.9 mph85%30.32 "Hg5 mi
2:54 AM21 °FOvercast.8 mph81%30.31 "Hg5 mi
Weather by CustomWeather, © 2014

See weather overviewHow to use our weather pages